GFSNGP_2pvu_pres_024.txt.gz
Presure
214 208 214 242 239 224 217 208 200 198 195 203 190 186 190 195 193 192 195 190 197 201 199 201 214 193 195 192 192 192 194 195 201 219 222 205 205 203 210 219 217 232 252 249
222 232 250 232 221 214 206 198 197 198 200 189 192 194 194 190 192 189 188 199 198 202 208 221 203 191 191 191 191 194 188 205 216 226 206 203 206 210 216 216 246 256 248 232
261 248 227 220 210 205 199 203 197 193 195 197 197 187 190 193 193 196 200 201 201 210 209 197 192 190 182 192 194 194 202 208 233 222 203 207 209 215 218 240 248 253 234 225
209 222 208 207 199 200 196 195 191 188 190 195 191 190 192 198 199 202 201 187 197 190 191 190 194 190 195 194 201 199 210 233 221 203 205 210 218 223 235 257 261 243 227 245
204 209 200 203 192 198 198 197 190 193 194 192 193 197 200 198 197 202 206 197 186 191 195 192 194 191 194 199 198 210 237 217 202 209 215 214 226 253 254 260 251 238 264 272
206 194 191 190 194 195 192 193 193 195 192 195 198 202 199 204 207 200 191 192 199 201 197 198 191 196 198 192 208 238 213 205 211 216 207 239 250 254 269 244 227 260 263 271
197 198 195 192 195 192 194 196 198 197 199 200 200 190 189 195 183 215 199 195 196 192 191 194 202 201 195 206 237 217 205 213 217 222 248 256 257 250 253 248 253 251 267 284
197 197 99 133 155 196 198 198 200 200 193 194 193 191 197 205 201 189 196 193 192 192 196 197 196 204 207 229 213 204 214 216 236 257 246 264 237 231 253 252 259 277 302 306
199 199 139 195 195 199 193 198 189 192 192 190 182 202 204 188 189 195 199 192 198 194 193 207 205 225 225 212 210 216 221 242 249 245 262 247 254 255 257 263 290 319 325 320
199 200 200 197 199 147 189 189 190 194 192 190 195 196 187 192 193 209 198 199 194 206 203 220 243 180 212 216 219 238 242 251 250 270 248 247 260 268 266 316 317 331 343 340
197 202 201 205 193 196 191 191 193 192 189 186 202 187 182 194 203 200 196 204 205 217 234 226 214 214 217 218 241 248 249 252 264 260 253 260 266 293 324 270 337 345 345 354
204 202 207 198 190 189 191 188 195 188 199 205 197 204 200 202 203 202 204 209 230 238 217 214 219 219 236 245 252 251 253 265 249 263 260 265 282 272 340 358 364 375 366 368
196 198 185 196 195 190 197 198 198 199 201 211 202 217 201 194 202 199 212 241 219 213 216 222 227 239 249 250 260 253 256 252 258 261 262 276 359 383 378 366 374 358 347 403
195 201 199 199 200 192 193 201 203 187 208 212 201 197 200 202 205 216 230 216 213 204 227 223 225 243 250 260 252 264 261 252 263 295 337 390 389 383 385 367 347 359 389 381
201 199 195 198 190 202 200 182 210 200 192 193 200 203 206 209 217 236 217 204 227 226 217 244 246 250 261 252 265 267 262 272 277 401 401 397 382 360 347 356 382 388 379 377
197 203 205 201 201 191 193 211 193 196 206 204 209 212 219 208 239 200 211 226 229 234 252 247 251 257 262 267 262 266 280 402 407 403 387 371 351 363 371 387 386 387 387 367
200 201 201 185 183 214 200 215 209 208 209 211 216 216 243 216 194 223 226 226 239 240 252 252 252 267 271 263 270 350 407 403 392 380 368 361 373 379 394 386 381 377 346 336
201 197 197 213 203 216 207 209 211 213 218 219 231 212 199 207 229 229 224 242 243 257 252 253 263 254 260 295 338 403 398 388 374 368 372 380 385 389 377 375 368 344 333 332
213 212 216 216 205 212 206 215 217 217 222 213 201 219 219 227 231 236 239 245 257 255 260 264 264 256 266 341 404 394 383 371 368 376 389 395 377 366 358 342 335 334 333 329
219 206 203 203 212 218 218 215 221 241 201 201 209 227 234 242 243 238 255 257 256 265 260 264 263 339 346 401 395 382 376 374 386 394 386 367 347 331 341 347 348 348 350 343
211 213 216 221 223 225 204 244 203 204 213 228 232 240 244 239 251 258 252 251 264 259 261 257 273 344 401 397 382 379 378 397 388 374 349 358 398 391 381 373 370 367 358 352
226 228 230 220 220 231 204 219 223 228 234 242 243 241 253 254 267 260 256 270 265 254 289 343 351 403 402 386 381 394 394 384 357 369 393 436 462 463 459 456 411 374 361 351
239 215 226 204 210 218 229 224 235 243 241 245 252 255 268 258 261 264 273 266 264 305 345 389 412 400 388 382 403 387 374 355 394 352 422 397 381 370 380 387 441 448 437 417
220 198 212 229 227 230 244 250 241 248 251 261 271 254 250 255 264 272 275 311 342 347 415 411 388 386 391 397 381 357 402 371 308 399 377 362 350 345 340 350 351 339 337 344
228 229 238 246 255 253 246 246 252 258 269 252 250 262 258 262 272 308 318 348 386 413 396 387 383 401 388 377 357 403 388 306 410 385 369 353 348 344 340 336 334 328 323 331
250 248 247 240 244 247 253 255 265 256 267 268 266 275 270 309 310 348 381 415 395 389 386 388 400 381 373 373 387 399 308 355 394 376 358 352 351 345 341 336 334 332 334 338
248 248 251 251 254 261 253 249 261 263 263 276 282 276 311 350 400 407 395 390 387 380 396 384 377 378 399 389 402 345 369 402 390 368 357 349 348 358 436 434 429 424 365 363

GFSNGP_2pvu_pres_030.txt.gz
Presure
225 228 222 221 220 216 209 205 209 213 212 208 232 225 208 205 204 197 201 195 192 193 192 188 183 189 193 195 201 192 191 182 198 201 191 204 206 209 212 223 223 209 212 220
219 221 215 211 212 203 206 211 211 216 206 243 218 210 202 199 196 191 195 191 190 193 193 192 193 199 202 183 194 210 199 189 193 205 203 204 208 211 217 233 203 221 234 248
221 217 208 209 216 213 212 207 221 223 255 232 218 201 194 191 191 193 195 193 193 195 196 205 208 197 195 189 199 194 188 192 199 200 207 203 213 217 233 209 221 233 247 257
221 215 206 208 202 213 204 208 211 250 233 209 199 197 198 199 198 195 194 195 200 203 205 204 194 199 183 204 201 184 193 207 202 205 205 213 219 230 209 229 240 242 251 263
210 212 206 204 206 209 206 201 250 230 159 201 196 192 191 193 193 193 198 201 202 202 203 195 195 202 190 203 184 205 206 191 205 206 212 220 231 205 229 241 237 247 255 260
208 212 207 205 203 210 207 203 211 207 198 197 197 196 197 193 195 197 201 201 194 199 191 199 189 193 200 196 204 200 186 206 208 213 224 237 203 225 238 236 241 257 261 258
211 210 206 209 201 187 126 207 205 200 198 200 199 199 200 198 195 199 201 201 203 195 193 189 198 197 184 200 200 190 208 209 215 216 218 193 228 237 237 239 256 264 261 256
202 211 207 205 201 198 199 206 203 200 200 198 200 201 201 202 200 196 192 196 197 192 193 198 200 201 204 201 197 212 206 216 208 235 196 229 233 238 239 256 262 245 253 259
209 203 209 202 201 193 197 199 195 194 194 193 192 197 200 201 200 204 198 200 194 193 193 200 200 203 184 209 210 202 217 206 235 195 227 234 236 243 248 261 257 246 269 276
203 207 199 207 120 199 195 201 201 196 194 198 199 199 198 202 194 192 202 193 193 190 200 199 198 187 206 205 203 216 207 232 220 225 235 234 243 248 258 261 253 269 277 285
202 201 179 201 201 203 203 197 199 199 199 200 200 198 197 192 194 203 192 184 192 200 199 199 190 206 202 211 216 221 235 223 223 239 238 245 247 246 261 255 264 275 280 396
213 180 201 207 207 200 201 206 207 202 199 197 200 199 195 193 202 191 188 195 202 195 203 210 206 202 211 218 223 239 224 221 237 238 248 247 248 260 273 275 273 292 409 410
217 214 207 204 205 206 201 199 202 202 203 193 193 193 191 201 190 203 205 202 192 208 213 208 212 213 220 226 238 225 215 239 239 249 248 248 263 272 281 267 291 408 402 399
222 219 215 207 207 207 207 206 205 194 198 197 198 199 198 205 207 203 199 197 212 207 205 215 216 220 229 228 222 219 241 246 248 247 251 263 273 271 274 299 422 411 401 389
219 218 221 220 210 209 205 204 207 207 204 204 205 208 204 203 199 197 213 212 206 217 215 216 221 242 228 219 238 245 248 248 251 256 265 261 268 282 296 427 425 417 398 380
228 223 220 216 218 218 219 217 203 207 207 205 204 209 215 199 215 216 212 206 220 198 219 227 232 227 238 245 244 248 253 256 259 268 264 273 283 301 433 424 406 395 390 394
227 231 231 224 219 218 221 220 219 212 208 212 212 205 209 215 214 207 217 217 217 227 225 229 230 241 245 242 250 251 260 260 268 257 277 290 314 434 415 400 392 396 397 383
232 233 231 230 225 222 222 221 219 220 216 212 199 214 215 216 218 222 222 227 228 227 225 237 246 240 249 252 253 262 267 263 274 282 302 364 420 412 398 394 404 388 381 386
227 229 231 230 227 226 223 220 221 218 202 204 223 223 223 222 223 223 217 193 230 221 245 246 228 258 254 261 261 268 262 277 286 295 428 420 410 396 402 390 381 380 385 399
234 234 232 227 224 223 223 222 221 215 222 218 218 225 226 227 228 189 230 216 240 248 236 243 260 256 260 261 269 269 275 288 333 427 419 405 402 406 383 381 393 399 390 395
235 226 225 231 232 226 222 221 218 220 222 228 231 228 231 193 233 220 238 240 245 249 263 261 262 258 265 265 277 278 292 365 421 411 400 412 394 383 389 391 400 396 400 381
231 228 227 225 226 228 225 223 227 227 231 230 200 206 232 220 236 236 244 246 257 266 262 259 257 268 267 279 283 300 422 412 407 410 403 386 407 397 408 403 405 392 374 365
228 231 230 229 230 231 229 229 232 214 229 233 234 222 232 237 239 248 259 260 267 265 261 265 270 275 277 289 306 412 413 415 406 391 391 432 437 422 417 404 380 368 431 429
225 226 227 228 232 237 244 236 227 232 236 207 237 238 242 250 260 259 268 269 269 262 268 274 279 284 291 334 413 419 408 394 389 405 428 434 425 420 393 377 451 422 398 380
241 244 232 225 228 233 234 237 239 237 241 243 251 255 258 258 272 275 271 271 270 270 279 281 292 392 417 420 404 396 392 395 409 413 436 434 409 385 375 428 396 375 399 613
232 234 234 235 240 244 243 244 246 252 257 261 262 264 277 276 273 270 269 275 281 285 289 301 417 420 407 398 442 479 431 409 403 429 425 409 380 368 414 381 367 526 522 532
246 246 240 243 247 253 259 262 264 262 264 280 273 272 271 269 275 277 281 282 289 301 410 416 410 398 409 399 399 470 436 398 411 415 409 379 362 414 369 366 435 429 470 504

GFSNGP_2pvu_pres_036.txt.gz
Presure
194 194 279 231 217 223 223 224 225 226 219 224 218 219 219 220 221 211 210 217 213 231 222 203 196 192 193 195 197 198 195 198 201 198 196 196 189 183 194 190 201 198 206 210
193 190 197 252 227 223 224 215 214 216 216 219 213 204 191 203 204 209 218 217 240 228 214 199 196 193 193 197 197 194 197 194 196 194 200 189 182 192 191 207 198 209 210 210
189 199 205 264 244 226 225 221 213 207 205 209 206 200 211 213 217 220 205 225 234 214 204 199 197 196 196 197 196 193 192 194 191 200 194 186 193 196 207 196 210 206 214 215
198 201 226 211 259 240 218 222 209 208 205 208 211 205 202 211 204 224 249 239 221 201 198 195 196 199 195 195 194 195 196 199 193 199 185 194 193 205 195 208 206 214 216 222
175 191 214 227 259 254 229 222 212 218 211 204 204 207 209 208 203 255 248 215 207 194 194 197 197 200 196 195 193 196 198 189 198 196 193 184 206 198 206 210 214 216 223 217
184 175 186 219 236 267 234 215 220 226 215 210 207 201 203 206 210 207 204 201 193 196 200 193 190 194 196 195 196 189 196 194 200 194 190 204 203 207 211 214 216 220 220 218
195 183 196 216 225 261 244 227 226 218 213 210 209 209 203 203 203 203 201 199 194 191 193 194 197 199 194 193 199 199 194 203 195 198 203 202 210 209 214 216 217 222 221 219
183 200 214 210 230 242 260 199 227 219 215 215 211 208 206 204 201 201 201 201 201 201 200 201 200 201 201 200 199 201 201 198 203 204 209 206 206 214 216 220 220 227 219 228
190 191 182 193 235 237 261 243 232 227 219 214 211 211 211 211 210 209 209 208 206 206 205 206 203 200 200 200 197 203 205 201 205 211 205 206 215 217 223 223 227 220 220 230
196 182 179 221 228 235 245 244 235 231 225 219 213 209 209 208 209 208 206 208 206 204 205 203 202 204 204 204 206 204 203 207 211 207 212 217 217 225 226 226 219 217 230 251
197 188 195 225 220 229 239 243 233 230 229 225 220 215 211 210 208 205 206 205 206 204 205 207 207 210 211 214 217 216 214 212 218 217 217 217 226 226 229 219 222 234 252 266
207 203 196 213 218 231 240 240 235 227 222 214 222 219 218 216 216 215 215 216 214 217 218 216 213 212 214 215 216 214 218 218 220 221 218 226 229 226 226 219 240 253 258 272
208 199 197 220 224 242 237 235 235 231 224 210 212 214 216 218 217 217 215 214 213 214 213 212 213 213 218 218 223 222 217 225 224 220 225 235 226 232 215 241 251 252 262 268
206 199 211 223 242 236 234 229 231 228 232 229 223 219 217 219 223 226 228 226 224 222 221 222 224 226 226 222 224 219 228 223 225 227 236 226 232 232 253 255 266 267 268 272
221 222 242 234 235 235 230 226 231 231 231 227 200 205 211 216 214 214 217 217 218 219 225 229 227 224 228 227 232 229 227 229 234 233 228 234 246 257 258 269 276 278 282 293
180 234 236 229 225 233 228 227 228 221 222 227 220 217 204 204 231 218 217 220 223 231 236 234 229 226 230 229 228 231 232 238 228 224 236 250 262 269 271 282 280 289 306 439
247 240 232 223 225 226 233 234 234 233 228 229 227 225 223 211 217 221 215 222 226 225 230 234 234 231 228 231 232 236 240 227 242 246 258 267 275 277 287 282 293 306 440 438
248 248 242 235 233 235 240 233 230 231 222 224 219 221 204 204 231 216 216 222 226 235 245 242 240 234 235 237 240 230 246 242 248 265 272 275 287 272 284 300 312 443 352 412
225 248 237 231 233 235 234 233 233 235 235 235 239 237 233 232 215 214 225 232 236 239 247 230 235 233 237 231 239 246 250 259 273 257 288 269 273 283 301 317 436 419 404 398
220 215 230 236 235 235 237 236 233 234 240 249 247 254 249 222 225 242 229 232 237 244 235 230 237 234 238 243 250 254 272 262 276 286 260 269 288 300 320 428 410 398 398 383
216 233 232 226 239 243 246 244 242 241 230 244 242 243 244 243 228 229 237 237 246 240 238 236 241 242 247 254 269 265 268 283 262 257 278 293 301 333 432 409 386 404 392 370
216 220 221 230 235 258 250 245 245 247 236 254 257 228 254 237 240 242 241 251 250 241 248 245 245 248 268 260 275 283 274 258 264 290 291 315 412 413 403 402 382 368 388 375
215 210 215 222 224 231 226 242 227 252 256 252 236 239 239 240 246 250 248 248 246 245 247 248 249 248 264 276 276 269 255 285 295 301 350 420 415 403 388 397 381 368 395 371
205 216 205 231 231 231 226 229 234 237 237 237 238 248 253 249 245 247 248 249 250 251 259 250 265 273 264 279 266 286 292 301 308 378 416 406 394 419 411 387 369 414 393 372
217 220 222 223 231 240 246 269 270 263 257 254 246 244 250 253 254 252 252 245 244 246 270 251 256 263 275 282 291 304 304 341 419 410 396 385 398 401 390 367 427 407 382 424
244 247 252 258 264 267 258 255 254 251 250 252 258 257 253 252 247 250 261 268 258 252 263 276 280 293 303 304 316 343 401 416 400 388 380 385 392 384 366 372 410 388 440 445
252 267 271 258 251 250 250 252 257 258 257 253 248 252 261 269 260 253 254 264 273 280 281 294 299 315 321 337 405 414 409 390 376 379 383 379 376 369 354 379 385 390 458 433

GFSNGP_2pvu_pres_042.txt.gz
Presure
196 177 179 203 197 190 204 183 194 230 247 241 220 219 217 223 225 224 223 223 223 221 217 206 204 206 202 201 203 210 206 215 224 213 214 198 197 199 193 189 194 194 186 195
199 186 189 201 207 189 204 216 181 212 217 254 236 220 215 211 221 222 215 212 209 206 207 202 208 209 203 202 211 205 202 223 221 217 212 200 193 190 191 185 191 198 194 201
183 179 191 202 186 192 197 207 232 196 203 201 248 234 220 214 214 210 210 211 211 213 218 212 201 210 210 209 213 215 220 231 232 214 191 194 191 190 192 194 195 199 201 202
201 176 198 204 179 189 198 205 214 184 193 218 219 256 236 219 212 204 207 210 211 207 205 205 205 207 209 221 219 252 251 235 199 195 194 193 193 197 199 201 201 202 199 202
198 187 194 176 194 179 201 202 195 224 190 171 213 228 254 240 221 213 205 205 202 203 202 201 207 205 205 205 206 205 203 202 200 197 199 202 201 198 200 196 199 197 201 203
195 172 190 186 181 183 197 201 219 215 225 196 212 196 253 254 241 226 216 206 213 208 208 210 208 209 206 206 203 201 199 200 199 197 199 200 198 195 203 194 201 205 213 214
186 179 164 193 191 198 192 194 215 214 198 189 183 213 218 227 257 242 229 222 214 210 209 204 202 203 202 200 200 202 200 200 201 199 198 198 202 199 207 211 212 217 227 226
189 177 174 176 176 207 207 191 206 195 222 177 186 192 202 229 226 252 243 232 221 216 213 209 211 209 208 208 206 205 203 203 205 205 206 211 211 211 215 220 222 222 224 225
184 177 189 169 180 182 213 199 198 200 215 206 185 180 202 208 234 221 248 237 232 223 219 220 218 214 212 212 211 212 217 217 214 211 214 217 219 223 216 217 215 216 224 227
192 188 212 186 217 195 208 215 197 208 210 212 181 183 180 180 205 229 245 246 240 229 223 221 222 224 224 223 221 217 214 219 211 209 219 209 214 218 217 228 215 220 227 235
206 193 213 221 202 204 213 204 217 220 212 213 190 214 204 208 216 223 212 241 248 235 231 228 225 223 223 224 222 224 228 216 193 215 206 216 208 215 213 217 230 234 227 238
217 219 220 219 216 212 200 206 213 213 209 211 213 199 203 209 214 221 224 234 245 240 241 238 237 236 232 234 239 236 233 229 228 223 211 245 245 256 247 256 244 236 249 255
216 205 183 211 209 213 216 220 223 212 207 193 194 214 214 222 203 227 233 239 237 239 237 239 238 244 237 227 228 240 237 239 237 238 239 255 249 272 238 239 251 254 249 242
216 214 214 211 212 215 200 213 214 199 203 197 214 215 208 199 222 250 246 247 244 230 226 225 226 224 229 245 242 237 237 240 252 257 249 262 232 234 247 250 240 241 253 254
213 212 209 200 207 205 206 214 209 210 213 213 218 224 206 220 239 248 227 228 230 237 232 228 239 236 239 244 249 249 248 236 243 244 257 261 255 253 242 240 250 254 248 254
211 189 192 210 202 208 204 220 213 212 200 214 221 220 214 227 219 237 224 218 227 220 215 256 252 231 219 224 223 214 220 260 262 256 255 251 247 245 246 255 246 250 260 267
211 213 209 209 162 211 213 204 202 218 222 215 219 200 235 210 228 237 235 215 241 214 232 220 215 206 223 206 229 243 242 245 258 241 245 252 254 253 252 250 252 263 253 258
210 210 209 169 209 209 190 206 210 222 221 197 202 221 223 248 246 246 249 218 216 221 218 223 221 219 216 229 224 229 232 236 242 252 259 255 247 255 252 262 261 251 266 269
210 210 183 209 190 208 206 220 220 215 219 219 226 234 253 250 232 206 214 199 221 233 216 220 213 225 231 219 225 235 241 240 248 259 248 247 250 260 259 251 260 271 277 293
213 211 209 207 210 214 219 220 219 206 223 208 223 223 238 205 216 226 235 223 233 237 218 217 216 228 217 229 245 244 240 255 252 253 242 253 261 260 263 262 276 287 296 327
213 212 207 217 223 217 197 206 229 214 225 216 260 231 234 220 225 232 227 233 215 210 229 232 227 224 227 244 237 240 249 235 241 249 253 259 261 263 266 279 297 300 341 426
221 233 234 231 229 233 231 232 228 225 245 224 215 208 234 231 239 236 223 217 222 227 225 233 231 235 240 254 267 253 259 245 251 256 263 264 268 276 289 302 315 348 416 410
229 221 232 227 223 223 231 227 225 219 215 226 227 239 214 219 222 225 232 227 228 232 235 233 244 239 257 265 250 257 254 253 263 264 273 276 291 294 310 384 415 409 406 382
233 234 229 225 220 241 241 225 242 240 240 242 215 242 223 238 227 233 236 244 241 248 251 250 277 271 284 277 256 253 263 268 273 280 283 296 304 394 391 403 401 395 371 376
237 237 239 239 240 238 237 231 223 235 239 240 241 240 242 250 231 227 242 261 265 241 250 274 272 262 254 272 264 273 278 283 283 299 305 330 413 402 399 394 375 375 381 380
239 237 247 249 249 251 250 251 246 237 240 259 242 259 250 268 266 256 254 281 280 255 241 262 272 265 272 282 288 286 291 304 308 334 416 407 402 392 388 386 386 388 387 389
223 229 227 227 254 256 259 234 233 231 235 241 246 250 249 251 254 245 241 260 259 252 268 275 282 284 284 291 302 310 320 405 421 417 414 414 411 410 406 403 402 404 408 415

GFSNGP_2pvu_pres_045.txt.gz
Presure
193 176 196 190 182 166 180 201 193 198 203 213 190 215 249 250 232 217 214 214 217 229 228 224 226 223 217 207 209 217 249 236 211 206 207 212 205 205 214 219 221 196 191 189
195 178 189 179 194 177 182 200 189 188 193 205 224 192 201 260 253 236 219 212 220 222 215 207 204 211 214 214 213 213 205 209 212 210 205 211 216 218 225 228 226 194 193 191
193 189 199 172 196 195 179 194 181 196 207 191 201 235 211 189 212 254 244 230 224 219 210 210 209 204 203 202 202 201 201 201 203 211 211 225 237 236 231 200 199 198 198 200
194 202 190 170 183 195 189 197 186 178 198 198 202 207 229 180 197 227 258 246 234 227 221 217 211 207 203 203 200 198 199 203 205 203 202 201 199 196 194 195 196 200 204 203
198 203 173 175 173 193 189 190 177 163 177 204 198 210 223 221 191 205 219 242 257 243 231 221 220 215 217 212 205 210 208 209 209 206 205 203 203 204 203 198 203 203 204 205
204 173 196 177 185 189 194 179 195 183 188 191 209 200 202 217 198 184 187 222 233 254 250 244 234 224 218 216 214 214 213 209 210 208 206 205 203 204 204 202 205 212 212 210
209 176 204 182 189 195 198 187 185 159 195 193 198 200 203 199 220 209 188 180 194 192 216 250 242 237 232 226 220 220 218 215 212 211 212 212 209 208 213 215 207 213 208 204
210 213 191 195 190 192 195 177 180 194 183 183 204 214 214 205 209 218 199 196 188 183 225 215 241 240 232 225 223 221 217 213 212 212 217 214 214 214 209 203 210 223 211 231
185 193 201 207 180 181 192 177 184 197 171 170 182 208 205 205 226 221 207 217 199 210 211 219 239 237 235 229 224 222 219 218 217 217 216 217 222 225 230 233 240 235 234 249
216 207 190 205 176 178 178 193 182 174 177 207 187 199 211 203 216 206 203 211 187 210 210 187 206 240 240 239 234 230 228 230 235 245 238 235 238 245 247 253 246 238 234 234
183 206 208 210 205 187 189 193 188 196 199 219 199 216 205 208 221 209 209 200 212 223 201 215 220 243 243 239 241 230 226 233 229 227 241 240 239 227 224 220 215 240 250 261
210 206 211 202 197 197 184 205 201 197 216 215 216 206 206 217 200 215 214 214 213 207 226 209 219 239 233 236 237 234 225 250 244 237 233 229 221 218 214 218 234 247 241 244
213 211 210 208 207 206 208 210 202 194 215 213 211 212 193 199 213 217 198 211 217 225 201 211 240 220 233 223 217 228 223 214 225 227 210 213 210 216 192 222 240 241 243 247
213 213 213 212 182 212 203 204 218 216 215 212 214 202 208 198 223 210 207 219 222 218 204 219 224 212 241 233 232 228 206 212 220 213 201 200 196 220 225 231 245 234 242 237
217 215 215 214 205 203 206 221 218 216 213 217 197 205 205 206 211 208 211 224 215 199 222 211 223 229 243 241 227 229 230 228 215 203 210 234 235 232 228 239 245 239 249 262
216 221 224 223 224 227 220 212 214 216 209 213 205 210 213 206 217 194 216 217 199 213 212 216 215 250 241 231 209 225 222 207 219 215 228 230 242 229 235 252 231 253 269 240
229 221 222 227 223 218 217 217 214 213 213 209 211 204 213 214 196 216 214 220 219 207 215 215 234 263 239 194 221 229 242 225 218 231 229 238 228 241 250 225 250 270 257 264
216 218 222 219 220 221 219 218 214 189 205 205 205 213 211 193 218 207 214 200 210 226 228 245 250 248 224 240 241 235 219 229 231 228 238 239 242 237 238 268 275 263 258 242
179 219 211 182 214 212 211 212 213 205 211 182 213 214 186 213 205 211 220 213 231 228 237 215 243 226 230 234 213 228 227 228 226 232 233 237 234 254 250 243 257 244 256 264
160 213 211 204 211 213 213 213 212 212 211 210 198 202 213 213 212 214 227 225 228 234 241 229 218 222 231 232 229 234 230 220 237 249 242 246 255 241 262 260 255 267 260 281
228 222 220 217 213 216 217 217 211 208 214 212 214 214 207 211 216 232 226 227 225 224 217 206 239 239 227 234 232 235 239 249 235 253 255 253 261 250 249 275 264 277 276 279
232 230 222 224 231 234 211 216 205 216 212 204 205 210 223 228 230 227 232 212 211 221 240 235 225 238 239 240 247 244 238 258 255 241 233 241 256 266 251 277 278 275 293 310
225 224 225 227 231 231 228 215 208 203 212 224 235 238 233 230 229 227 222 233 241 233 225 242 251 246 230 232 257 241 240 238 255 291 268 261 264 272 276 279 289 305 333 423
228 226 225 229 226 224 224 227 230 236 238 235 231 231 236 237 239 239 224 249 246 248 243 230 229 252 240 240 242 239 285 292 243 259 276 267 278 280 286 304 337 431 427 404
231 233 230 229 213 231 227 225 224 235 239 240 237 242 248 244 254 252 249 230 233 230 244 246 244 269 260 248 258 257 252 267 262 259 288 280 290 305 363 429 413 403 393 385
258 256 242 239 231 248 257 259 246 235 257 238 222 253 243 229 220 237 237 235 248 256 256 262 259 250 251 253 257 264 267 282 279 280 298 313 385 422 413 404 401 411 410 401
254 251 257 255 257 259 253 250 251 257 260 256 260 243 237 257 252 251 251 257 248 251 263 263 267 258 259 266 272 291 302 296 313 358 429 420 415 406 421 423 411 399 387 460

GFSNGP_2pvu_pres_048.txt.gz
Presure
204 196 189 192 183 167 187 198 176 177 179 193 203 187 212 208 244 200 205 235 257 247 231 222 224 218 216 213 220 239 209 206 206 217 214 220 206 210 214 212 207 210 216 215
203 175 177 178 184 182 179 197 177 182 173 189 187 189 200 207 201 239 228 189 220 231 254 242 234 220 213 212 211 207 206 208 206 206 204 204 206 212 211 216 205 205 201 202
204 179 196 175 181 185 180 196 192 189 195 178 183 183 186 198 211 214 222 226 203 194 246 261 253 253 233 228 220 215 216 210 209 208 208 208 205 205 204 204 203 204 202 202
203 195 198 176 177 183 178 188 197 177 194 193 189 193 182 169 207 186 211 208 227 221 191 185 203 259 262 254 243 232 225 222 220 216 213 210 208 206 205 202 200 201 207 207
191 196 197 196 174 203 198 186 197 184 190 190 183 179 177 182 193 180 225 215 200 212 221 201 200 204 223 191 257 253 243 236 232 226 223 221 220 218 218 218 218 221 224 212
196 202 199 190 168 184 198 176 202 172 180 194 181 193 192 176 191 206 224 216 217 214 223 233 200 197 193 211 211 250 246 241 235 229 228 226 226 224 223 218 215 215 215 216
206 203 200 197 192 196 203 182 196 195 188 192 207 182 175 193 186 195 207 218 202 207 225 210 208 208 210 202 196 222 252 244 200 229 228 225 224 223 218 216 219 226 235 237
214 214 202 187 200 200 189 172 115 143 180 143 170 181 191 190 171 181 202 217 208 212 212 224 203 205 219 209 216 213 217 235 240 239 236 228 224 228 233 227 230 231 234 248
221 216 206 200 187 198 205 198 188 201 202 198 206 198 169 186 195 187 192 217 207 210 202 222 213 222 209 219 204 208 218 233 213 242 250 246 234 231 231 246 245 250 220 214
228 216 210 207 206 201 205 215 217 195 198 173 175 180 187 167 191 194 207 212 212 211 205 201 215 200 209 222 231 200 213 205 223 205 248 228 221 212 221 212 216 209 201 204
226 212 209 209 209 210 194 204 193 182 204 209 190 186 188 193 191 198 214 212 213 212 208 200 208 212 179 226 213 198 224 204 220 214 234 241 230 225 225 213 209 214 216 205
225 223 216 212 218 215 199 186 189 206 196 206 209 209 200 196 208 212 212 212 211 208 200 198 217 207 206 218 202 205 207 207 221 216 224 247 238 217 209 204 210 198 227 230
227 226 228 219 212 226 222 217 200 207 211 181 201 205 196 208 201 217 208 216 211 210 193 206 208 197 216 211 201 194 202 222 220 224 241 248 249 198 205 232 214 229 230 227
234 232 227 217 229 226 218 208 208 196 209 211 209 205 210 212 197 219 216 216 198 196 208 173 211 212 217 214 213 201 197 222 228 222 218 260 230 246 213 228 233 237 229 236
233 207 222 201 225 219 219 215 214 218 215 212 215 214 214 202 205 223 218 205 206 208 200 217 210 216 213 206 207 199 219 227 227 225 231 230 232 224 249 233 233 230 230 248
225 223 224 216 226 222 218 216 181 216 217 216 218 222 217 227 224 217 215 211 211 212 210 203 215 210 200 209 217 211 223 229 228 222 227 247 230 223 229 230 233 241 241 239
224 226 223 225 224 221 219 221 221 217 217 217 223 227 229 215 216 220 217 212 213 207 212 192 212 213 196 211 214 216 226 234 216 224 230 244 228 230 230 237 243 238 239 241
229 230 225 222 218 218 223 222 216 218 224 221 220 225 208 215 213 213 212 208 211 213 211 200 215 212 216 216 212 226 227 235 232 226 242 231 231 238 244 214 236 239 239 240
224 227 227 231 234 237 227 213 228 208 215 213 212 212 215 213 213 211 212 212 214 207 209 217 215 208 215 213 222 228 240 226 233 234 227 238 233 224 210 239 241 238 252 225
223 224 225 226 227 227 224 220 220 214 213 217 216 211 212 212 208 212 214 210 213 216 217 208 206 215 224 228 242 236 235 239 218 236 240 239 213 235 245 240 244 261 241 250
228 227 224 223 222 221 222 222 221 220 223 219 217 219 217 215 215 205 215 219 217 214 208 210 219 228 231 235 238 237 229 235 244 245 238 233 245 243 247 248 248 257 251 264
230 230 224 224 223 227 225 225 225 221 223 223 222 222 222 218 220 225 231 235 237 221 229 230 239 239 240 241 234 250 246 241 216 233 241 239 243 255 239 260 261 257 275 270
231 229 230 232 232 230 229 228 230 232 234 234 232 230 229 221 226 230 223 231 230 231 237 239 237 240 232 250 254 251 228 241 242 242 251 254 255 255 248 259 265 276 286 301
232 230 224 225 228 227 226 225 228 232 234 232 231 234 236 240 228 230 235 235 240 228 239 244 252 259 262 257 258 260 241 245 251 247 254 251 254 262 260 282 290 282 296 310
233 229 225 207 234 233 231 233 233 229 226 227 235 231 230 229 239 232 240 244 248 244 261 272 261 257 241 239 242 254 248 247 258 253 255 271 267 287 298 285 298 343 427 414
246 244 244 240 234 237 239 242 244 246 245 250 255 260 241 264 266 262 256 261 263 253 252 239 248 263 259 251 248 254 255 256 255 266 268 288 302 291 307 378 423 416 416 407
285 280 224 277 264 270 271 272 272 271 267 263 259 261 266 266 267 271 271 248 242 250 260 259 253 248 249 260 265 266 268 278 292 302 290 295 367 428 419 415 441 434 424 411